�N����,����,�~����,�C��,���x,�C��,����,���ϕ���,�ő�u�ԕ���,�ő厞����,���˗�,�I�_���x,�n�����x,�ő啗���N��,DTYPE
"21/06/02","00:10",0.0,19.1,77.7,1011.9,286.6,1.0,1.4,284.8,0.00,15.2,130.0,"00:01:28",1
"21/06/02","00:20",0.0,19.0,77.9,1012.1,280.7,1.0,1.2,323.9,0.00,15.1,130.0,"00:16:48",1
"21/06/02","00:30",0.0,18.9,78.1,1012.3,295.7,1.1,2.4,306.7,0.00,15.0,130.0,"00:22:56",1
"21/06/02","00:40",0.0,18.8,78.4,1012.3,313.2,0.7,1.3,317.8,0.00,15.0,130.0,"00:38:16",1
"21/06/02","00:50",0.0,18.7,79.0,1012.3,311.3,1.2,1.9,329.5,0.00,15.0,130.0,"00:49:20",1
"21/06/02","01:00",0.0,18.5,79.6,1012.1,305.4,1.0,1.8,325.5,0.00,14.9,130.0,"00:50:24",1
"21/06/02","01:10",0.0,18.5,80.8,1012.6,305.1,1.2,1.9,317.5,0.00,15.2,130.0,"01:04:08",1
"21/06/02","01:20",0.0,18.4,81.8,1012.3,299.2,1.1,1.7,337.9,0.00,15.3,130.0,"01:15:20",1
"21/06/02","01:30",0.0,18.4,82.4,1012.6,317.6,1.2,1.9,314.9,0.00,15.4,130.0,"01:26:56",1
"21/06/02","01:40",0.0,18.5,82.7,1013.0,308.3,0.8,1.3,327.7,0.00,15.5,130.0,"01:30:08",1
"21/06/02","01:50",0.0,18.5,82.9,1012.8,276.0,0.2,0.5,264.4,0.00,15.6,130.0,"01:41:28",1
"21/06/02","02:00",0.0,18.2,83.1,1013.0,260.2,0.6,0.9,279.4,0.00,15.3,130.0,"01:56:08",1
"21/06/02","02:10",0.0,18.2,83.5,1012.8,275.4,1.0,1.3,285.3,0.00,15.4,130.0,"02:03:44",1
"21/06/02","02:20",0.0,18.0,83.6,1013.3,298.3,0.7,1.2,312.6,0.00,15.2,130.0,"02:18:56",1
"21/06/02","02:30",0.0,18.0,84.0,1012.8,303.4,1.1,1.9,337.0,0.00,15.3,130.0,"02:29:12",1
"21/06/02","02:40",0.0,17.8,84.3,1012.6,293.0,1.1,1.9,324.6,0.00,15.2,130.0,"02:32:00",1
"21/06/02","02:50",0.0,17.6,84.8,1012.6,305.7,1.1,1.4,325.1,0.00,15.1,130.0,"02:47:44",1
"21/06/02","03:00",0.0,17.6,85.2,1012.6,297.9,1.1,1.4,315.2,0.00,15.1,130.0,"02:56:32",1
"21/06/02","03:10",0.0,17.7,85.8,1012.6,322.5,1.8,2.6,334.6,0.00,15.3,130.0,"03:02:56",1
"21/06/02","03:20",0.0,17.5,86.1,1012.3,297.0,0.8,2.0,334.0,0.00,15.2,130.0,"03:12:24",1
"21/06/02","03:30",0.0,17.5,86.6,1012.3,296.4,1.3,2.0,317.8,0.00,15.3,130.0,"03:27:36",1
"21/06/02","03:40",0.0,17.5,86.9,1012.3,326.6,1.5,2.7,336.0,0.00,15.3,130.0,"03:34:24",1
"21/06/02","03:50",0.0,17.5,87.1,1012.1,302.3,1.1,1.7,304.5,0.00,15.4,130.0,"03:49:28",1
"21/06/02","04:00",0.0,17.5,87.3,1012.6,304.5,1.2,1.7,306.3,0.00,15.4,130.0,"03:50:40",1
"21/06/02","04:10",0.0,17.5,87.4,1012.6,299.1,1.2,2.0,323.0,0.00,15.4,130.0,"04:04:08",1
"21/06/02","04:20",0.0,17.4,87.4,1013.0,297.8,1.1,1.8,316.3,0.00,15.3,130.0,"04:19:12",1
"21/06/02","04:30",0.0,17.4,87.5,1012.8,306.0,1.1,2.0,319.6,0.00,15.3,130.0,"04:22:40",1
"21/06/02","04:40",0.0,17.5,87.5,1012.8,306.5,1.0,1.2,335.8,0.00,15.4,130.0,"04:30:24",1
"21/06/02","04:50",0.0,17.5,87.6,1013.0,279.6,1.0,1.3,283.1,0.00,15.5,130.0,"04:41:44",1
"21/06/02","05:00",0.0,17.4,87.7,1013.0,284.1,0.8,1.1,309.9,0.00,15.4,130.0,"04:57:20",1
"21/06/02","05:10",0.0,17.5,87.7,1013.0,292.1,1.1,1.4,270.5,0.00,15.5,130.0,"05:02:24",1
"21/06/02","05:20",0.0,17.6,87.7,1013.3,288.4,1.1,1.6,307.1,0.00,15.6,130.0,"05:16:16",1
"21/06/02","05:30",0.0,17.6,87.7,1013.0,281.6,0.8,1.3,304.4,0.00,15.6,130.0,"05:27:52",1
"21/06/02","05:40",0.0,17.7,87.6,1013.0,297.3,1.1,1.6,321.1,0.00,15.7,130.0,"05:38:48",1
"21/06/02","05:50",0.0,17.9,87.6,1012.8,319.9,1.2,1.7,324.6,0.00,15.9,130.0,"05:48:48",1
"21/06/02","06:00",0.0,17.9,87.5,1013.3,294.8,1.0,1.4,312.7,0.01,15.8,130.0,"05:55:44",1
"21/06/02","06:10",0.0,18.0,87.5,1013.5,314.7,0.7,1.4,336.7,0.02,15.9,130.0,"06:07:20",1
"21/06/02","06:20",0.0,18.3,87.3,1013.8,297.5,1.0,1.7,318.6,0.02,16.2,130.0,"06:18:32",1
"21/06/02","06:30",0.0,18.6,87.1,1013.5,321.8,1.2,1.8,315.3,0.03,16.5,130.0,"06:20:56",1
"21/06/02","06:40",0.0,19.0,86.8,1013.3,286.8,0.8,1.1,274.2,0.05,16.8,130.0,"06:39:52",1
"21/06/02","06:50",0.0,19.1,86.4,1013.3,298.3,1.1,1.6,328.8,0.05,16.8,130.0,"06:46:24",1
"21/06/02","07:00",0.0,19.5,86.2,1013.5,302.2,0.8,1.2,300.7,0.06,17.2,130.0,"06:50:56",1
"21/06/02","07:10",0.0,19.9,85.7,1013.5,295.2,0.7,1.2,323.2,0.07,17.5,130.0,"07:04:16",1
"21/06/02","07:20",0.0,20.3,84.6,1013.5,316.2,0.8,1.6,339.8,0.08,17.7,130.0,"07:19:52",1
"21/06/02","07:30",0.0,20.8,83.9,1013.5,290.1,0.6,1.8,336.3,0.10,18.0,130.0,"07:20:16",1
"21/06/02","07:40",0.0,20.8,82.2,1013.5,335.7,1.3,2.1,335.7,0.10,17.7,130.0,"07:32:08",1
"21/06/02","07:50",0.0,21.3,80.8,1013.3,339.3,1.1,2.1,337.0,0.11,17.9,130.0,"07:42:16",1
"21/06/02","08:00",0.0,21.7,78.8,1013.5,25.6,1.0,2.1,0.5,0.14,17.9,130.0,"07:50:08",1
"21/06/02","08:10",0.0,22.3,76.4,1013.3,65.9,0.7,1.9,79.2,0.18,18.0,130.0,"08:09:44",1
"21/06/02","08:20",0.0,22.7,74.4,1013.3,77.2,1.1,2.5,103.1,0.19,18.0,130.0,"08:18:32",1
"21/06/02","08:30",0.0,22.9,73.0,1013.0,122.9,1.2,3.1,133.8,0.22,17.8,130.0,"08:28:56",1
"21/06/02","08:40",0.0,23.4,72.6,1013.3,146.6,1.2,3.2,147.1,0.24,18.2,130.0,"08:31:44",1
"21/06/02","08:50",0.0,23.6,70.9,1013.3,139.0,1.1,4.0,127.3,0.23,18.1,130.0,"08:41:44",1
"21/06/02","09:00",0.0,23.6,70.3,1013.0,125.0,1.7,4.5,137.8,0.28,17.9,130.0,"08:55:20",1
"21/06/02","09:10",0.0,23.9,68.8,1012.8,125.3,1.2,3.7,139.3,0.28,17.9,130.0,"09:06:56",1
"21/06/02","09:20",0.0,24.0,69.0,1012.6,124.6,1.2,2.9,119.9,0.24,18.0,130.0,"09:10:40",1
"21/06/02","09:30",0.0,24.1,68.5,1012.6,116.5,1.2,3.4,163.6,0.27,18.0,130.0,"09:21:20",1
"21/06/02","09:40",0.0,24.0,68.8,1012.3,156.1,1.8,3.6,159.4,0.25,18.0,130.0,"09:35:20",1
"21/06/02","09:50",0.0,24.5,67.5,1012.3,129.4,1.7,4.5,137.8,0.35,18.1,130.0,"09:48:08",1
"21/06/02","10:00",0.0,24.4,66.7,1012.6,120.9,1.2,3.3,164.6,0.23,17.8,130.0,"09:52:24",1
"21/06/02","10:10",0.0,24.6,66.4,1012.3,104.5,1.1,2.8,112.9,0.24,18.0,130.0,"10:08:16",1
"21/06/02","10:20",0.0,24.9,66.0,1012.3,113.0,1.0,2.2,79.5,0.28,18.2,130.0,"10:17:36",1
"21/06/02","10:30",0.0,25.2,65.2,1012.1,101.4,1.2,3.1,150.3,0.28,18.2,130.0,"10:20:02",1
"21/06/02","10:40",0.0,25.1,64.4,1012.1,155.8,1.0,3.1,94.3,0.26,18.0,130.0,"10:32:08",1
"21/06/02","10:50",0.0,25.3,64.1,1011.4,101.1,1.3,3.4,130.3,0.28,18.1,130.0,"10:49:20",1
"21/06/02","11:00",0.0,25.3,63.6,1011.2,123.1,1.5,3.2,134.6,0.30,17.9,130.0,"10:55:04",1
"21/06/02","11:10",0.0,25.4,63.8,1011.2,116.9,1.1,3.1,136.6,0.23,18.1,130.0,"11:03:12",1
"21/06/02","11:20",0.0,25.5,63.9,1010.9,126.8,0.8,2.1,28.1,0.21,18.2,130.0,"11:11:12",1
"21/06/02","11:30",0.0,25.5,62.9,1011.4,133.3,1.1,3.5,147.3,0.24,18.0,130.0,"11:26:16",1
"21/06/02","11:40",0.0,25.9,62.1,1011.4,134.0,0.8,1.9,88.3,0.25,18.1,130.0,"11:38:24",1
"21/06/02","11:50",0.0,25.8,61.0,1011.2,53.2,1.1,2.7,11.3,0.25,17.8,130.0,"11:46:16",1
"21/06/02","12:00",0.0,26.0,62.2,1011.2,100.6,0.8,2.2,18.8,0.20,18.3,130.0,"11:53:04",1
"21/06/02","12:10",0.0,25.8,61.0,1010.7,74.4,1.0,2.4,44.9,0.20,17.8,130.0,"12:01:04",1
"21/06/02","12:20",0.0,25.7,60.3,1010.7,57.4,1.0,2.6,4.8,0.19,17.5,130.0,"12:15:20",1
"21/06/02","12:30",0.0,25.9,60.4,1010.4,88.7,0.8,2.0,6.4,0.21,17.7,130.0,"12:26:32",1
"21/06/02","12:40",0.0,25.9,59.7,1010.4,118.5,1.1,2.7,166.2,0.22,17.5,130.0,"12:36:56",1
"21/06/02","12:50",0.0,26.1,59.4,1010.2,113.0,1.0,2.4,112.8,0.18,17.6,130.0,"12:47:52",1
"21/06/02","13:00",0.0,26.3,59.4,1010.2,114.4,1.2,2.5,138.6,0.25,17.8,130.0,"12:56:40",1
"21/06/02","13:10",0.0,26.5,57.7,1010.4,112.9,1.3,2.7,89.3,0.30,17.5,130.0,"13:03:12",1
"21/06/02","13:20",0.0,26.5,56.4,1010.4,120.0,1.2,4.0,126.3,0.26,17.2,130.0,"13:14:48",1
"21/06/02","13:30",0.0,26.5,56.1,1010.2,90.9,1.0,2.6,95.6,0.24,17.1,130.0,"13:28:48",1
"21/06/02","13:40",0.0,26.6,55.9,1010.0,132.1,1.1,2.7,127.7,0.27,17.1,130.0,"13:38:32",1
"21/06/02","13:50",0.0,27.3,56.1,1010.2,122.8,1.3,3.2,128.3,0.38,17.8,130.0,"13:42:24",1
"21/06/02","14:00",0.0,26.8,54.4,1010.0,97.4,1.3,3.7,151.7,0.23,16.9,130.0,"13:54:08",1
"21/06/02","14:10",0.0,27.2,56.0,1009.7,115.6,1.2,3.9,129.7,0.29,17.7,130.0,"14:03:20",1
"21/06/02","14:20",0.0,27.2,55.2,1010.2,113.7,1.5,3.9,134.1,0.31,17.5,130.0,"14:11:44",1
"21/06/02","14:30",0.0,27.4,54.6,1009.5,102.5,1.2,3.4,124.5,0.31,17.5,130.0,"14:20:48",1
"21/06/02","14:40",0.0,27.7,54.2,1009.5,114.4,1.5,4.2,118.3,0.32,17.7,130.0,"14:39:28",1
"21/06/02","14:50",0.0,27.5,53.3,1010.0,176.4,1.6,3.7,125.3,0.29,17.2,130.0,"14:40:16",1
"21/06/02","15:00",0.0,27.6,53.0,1009.5,122.8,1.6,4.1,354.1,0.29,17.2,130.0,"14:51:28",1
"21/06/02","15:10",0.0,27.2,54.3,1009.5,103.8,1.2,2.8,180.8,0.16,17.2,130.0,"15:07:52",1
"21/06/02","15:20",0.0,28.0,54.4,1009.7,87.8,1.0,3.5,157.5,0.29,18.0,130.0,"15:17:36",1
"21/06/02","15:30",0.0,27.7,53.4,1009.7,108.8,1.1,3.4,100.6,0.19,17.4,130.0,"15:27:20",1
"21/06/02","15:40",0.0,26.9,56.3,1009.5,125.2,1.3,3.6,129.2,0.14,17.5,130.0,"15:35:12",1
"21/06/02","15:50",0.0,27.2,54.4,1009.3,108.7,1.1,3.9,154.6,0.19,17.2,130.0,"15:49:44",1
"21/06/02","16:00",0.0,27.1,55.3,1009.0,142.4,1.1,2.4,142.6,0.14,17.4,130.0,"15:59:12",1
"21/06/02","16:10",0.0,27.0,54.6,1008.8,106.3,1.2,2.7,55.0,0.11,17.1,130.0,"16:07:12",1
"21/06/02","16:20",0.0,26.7,55.2,1008.6,103.1,1.1,2.2,147.8,0.09,17.0,130.0,"16:10:08",1
"21/06/02","16:30",0.0,26.8,55.1,1008.6,115.7,1.1,2.8,5.8,0.11,17.1,130.0,"16:29:20",1
"21/06/02","16:40",0.0,26.9,55.1,1008.3,94.7,0.8,2.5,44.6,0.10,17.2,130.0,"16:35:12",1
"21/06/02","16:50",0.0,26.9,55.2,1008.3,111.5,0.7,1.9,96.2,0.10,17.2,130.0,"16:47:44",1
"21/06/02","17:00",0.0,26.6,55.7,1008.3,99.7,1.1,2.7,87.9,0.06,17.1,130.0,"16:53:36",1
"21/06/02","17:10",0.0,26.4,56.2,1008.6,80.9,1.3,3.3,107.9,0.06,17.0,130.0,"17:03:04",1
"21/06/02","17:20",0.0,26.1,57.4,1008.8,116.0,1.3,2.9,62.3,0.05,17.1,130.0,"17:11:36",1
"21/06/02","17:30",0.0,26.0,57.9,1008.8,94.3,1.1,2.7,108.1,0.06,17.1,130.0,"17:22:16",1
"21/06/02","17:40",0.0,26.0,57.8,1008.6,58.7,1.1,2.7,41.4,0.05,17.1,130.0,"17:34:40",1
"21/06/02","17:50",0.0,25.9,58.6,1008.8,98.5,1.0,2.4,99.7,0.04,17.2,130.0,"17:41:52",1
"21/06/02","18:00",0.0,25.9,58.0,1009.3,81.2,0.8,2.1,107.4,0.05,17.0,130.0,"17:54:32",1
"21/06/02","18:10",0.0,25.8,58.5,1009.3,72.6,0.7,1.8,65.2,0.04,17.1,130.0,"18:04:48",1
"21/06/02","18:20",0.0,25.5,58.9,1010.0,71.6,0.7,2.5,16.7,0.02,16.9,130.0,"18:12:56",1
"21/06/02","18:30",0.0,25.4,59.3,1009.5,84.1,1.0,2.2,89.4,0.03,16.9,130.0,"18:24:32",1
"21/06/02","18:40",0.0,25.2,60.1,1009.7,95.7,1.0,2.4,119.0,0.01,17.0,130.0,"18:34:08",1
"21/06/02","18:50",0.0,24.8,61.1,1010.0,92.5,0.8,3.6,86.5,0.00,16.8,130.0,"18:48:40",1
"21/06/02","19:00",0.0,24.7,62.8,1010.0,103.9,0.6,1.6,104.2,0.00,17.2,130.0,"18:52:56",1
"21/06/02","19:10",0.0,24.4,63.5,1010.2,96.1,0.8,2.4,76.5,0.00,17.1,130.0,"19:03:44",1
"21/06/02","19:20",0.0,24.1,64.2,1010.4,129.4,1.0,3.4,149.1,0.00,17.0,130.0,"19:10:48",1
"21/06/02","19:30",0.0,24.0,64.9,1010.4,67.7,0.7,2.1,133.8,0.00,17.0,130.0,"19:21:12",1
"21/06/02","19:40",0.0,23.9,65.3,1010.2,90.6,1.0,2.7,116.1,0.00,17.0,130.0,"19:37:04",1
"21/06/02","19:50",0.0,23.7,65.9,1010.4,28.8,0.5,1.0,37.4,0.00,17.0,130.0,"19:40:32",1
"21/06/02","20:00",0.0,23.4,66.8,1010.9,30.4,0.5,1.4,42.0,0.00,16.9,130.0,"19:52:08",1
"21/06/02","20:10",0.0,23.3,67.4,1011.2,20.8,0.3,1.0,79.2,0.00,17.0,130.0,"20:04:40",1
"21/06/02","20:20",0.0,23.1,68.1,1011.2,31.0,0.6,1.3,357.1,0.00,16.9,130.0,"20:12:08",1
"21/06/02","20:30",0.0,23.1,68.8,1011.2,46.7,0.6,1.6,85.5,0.00,17.1,130.0,"20:27:20",1
"21/06/02","20:40",0.0,23.0,69.3,1011.2,19.8,0.6,2.0,89.6,0.00,17.1,130.0,"20:39:20",1
"21/06/02","20:50",0.0,22.9,70.2,1011.4,62.0,0.5,1.0,90.8,0.00,17.2,130.0,"20:48:16",1
"21/06/02","21:00",0.0,22.7,71.1,1011.4,62.9,0.5,1.2,115.9,0.00,17.2,130.0,"20:58:48",1
"21/06/02","21:10",0.0,22.8,71.9,1011.4,97.5,0.8,2.0,81.5,0.00,17.5,130.0,"21:00:48",1
"21/06/02","21:20",0.0,22.8,72.1,1011.9,75.0,0.7,1.8,41.4,0.00,17.6,130.0,"21:19:52",1
"21/06/02","21:30",0.0,22.7,72.2,1011.6,55.6,0.5,1.8,55.4,0.00,17.5,130.0,"21:24:00",1
"21/06/02","21:40",0.0,22.6,72.7,1011.6,33.0,0.5,1.3,16.4,0.00,17.5,130.0,"21:36:32",1
"21/06/02","21:50",0.0,22.4,73.8,1012.1,172.8,0.5,1.8,187.7,0.00,17.5,130.0,"21:47:04",1
"21/06/02","22:00",0.0,22.4,73.3,1011.6,157.3,1.1,2.6,131.6,0.00,17.4,130.0,"21:55:04",1
"21/06/02","22:10",0.0,22.5,72.3,1011.6,177.9,1.1,2.2,165.2,0.00,17.3,130.0,"22:09:12",1
"21/06/02","22:20",0.0,22.4,72.1,1011.9,181.9,0.7,2.2,138.5,0.00,17.2,130.0,"22:14:32",1
"21/06/02","22:30",0.0,22.2,73.0,1011.9,193.5,0.7,1.7,233.4,0.00,17.2,130.0,"22:29:44",1
"21/06/02","22:40",0.0,21.9,73.5,1012.1,251.6,0.8,1.4,217.2,0.00,17.0,130.0,"22:31:04",1
"21/06/02","22:50",0.0,21.5,74.7,1011.9,259.9,0.5,0.9,259.7,0.00,16.9,130.0,"22:42:08",1
"21/06/02","23:00",0.0,21.3,75.7,1011.9,299.2,1.1,1.9,328.0,0.00,16.9,130.0,"22:57:20",1
"21/06/02","23:10",0.0,20.6,76.9,1012.1,313.7,0.8,1.2,312.3,0.00,16.4,130.0,"23:00:24",1
"21/06/02","23:20",0.0,20.4,78.8,1011.9,8.0,0.6,1.7,336.3,0.00,16.6,130.0,"23:19:20",1
"21/06/02","23:30",0.0,19.7,80.0,1011.4,286.3,0.8,1.3,334.6,0.00,16.2,130.0,"23:20:08",1
"21/06/02","23:40",0.0,19.5,81.2,1011.4,329.2,0.8,1.7,330.1,0.00,16.2,130.0,"23:34:16",1
"21/06/02","23:50",0.0,19.4,82.2,1011.4,300.8,1.0,1.3,251.1,0.00,16.3,130.0,"23:44:00",1
"21/06/02","24:00",0.0,19.1,83.1,1011.4,300.3,1.0,1.7,324.5,0.00,16.2,130.0,"23:56:16",1
